Caro, MI

10:53 PM EST on November 18, 2017 (GMT -0500)
Caro

Weather History for KCFS - April, 2013

Change the Weather History Date:

Monday, April 22, 2013

  Actual Average (KMBS) Record (KMBS)
Temperature  
Mean Temperature 48 °F -  
Max Temperature 61 °F 56 °F 82 °F (2007)
Min Temperature 34 °F 35 °F 30 °F (2002)
Degree Days  
Heating Degree Days 18    
Moisture  
Dew Point 23 °F    
Average Humidity 42    
Maximum Humidity 78    
Minimum Humidity 20    
Precipitation  
Precipitation 0.00 in - - ()
Sea Level Pressure  
Sea Level Pressure 30.32 in    
Wind  
Wind Speed 7 mph (SE)    
Max Wind Speed 13 mph    
Max Gust Speed 20 mph    
Visibility 10 miles    
Events      
Averages and records for this station are not official NWS values.
T = Trace of Precipitation, MM = Missing Value Source: NWS Daily Summary

Daily Weather History Graph

Daily Weather History Graph

Search for Another Location

Airport or City:

Trip Planner

Search our weather history database for the weather conditions in past years. The results will help you decide how hot, cold, wet, or windy it might be!

Date:

Astronomy

Apr. 22, 2013 Rise Set
Actual Time 6:39 AM EDT 8:25 PM EDT
Civil Twilight 6:09 AM EDT 8:56 PM EDT
Nautical Twilight 5:32 AM EDT 9:33 PM EDT
Astronomical Twilight 4:52 AM EDT 10:13 PM EDT
Moon 5:08 PM EDT (4/22) 4:39 AM EDT (4/22)
Length of Visible Light 14h 46m
Length of Day
13h 45m
Waxing Gibbous, 87% of the Moon is Illuminated
Apr 22
Waxing Gibbous
Apr 25
Full
May 2
Last Quarter
May 9
New
May 18
First Quarter

Hourly Weather History & Observations

Time (EDT) Temp. Windchill Dew Point Humidity Pressure Visibility Wind Dir Wind Speed Gust Speed Precip Events Conditions
12:15 AM 37.6 °F 32.3 °F 21.2 °F 52% 30.46 in 10.0 mi SE 6.9 mph - N/A   Clear
12:34 AM 37.2 °F 31.9 °F 20.1 °F 50% 30.46 in 10.0 mi SSE 6.9 mph - N/A   Clear
12:55 AM 36.7 °F 32.0 °F 19.0 °F 49% 30.45 in 10.0 mi SE 5.8 mph - N/A   Clear
1:15 AM 36.5 °F 31.0 °F 18.9 °F 49% 30.45 in 10.0 mi SE 6.9 mph - N/A   Clear
1:35 AM 36.0 °F 31.1 °F 19.4 °F 51% 30.44 in 10.0 mi SE 5.8 mph - N/A   Clear
1:55 AM 35.8 °F 30.9 °F 19.9 °F 53% 30.44 in 10.0 mi SSE 5.8 mph - N/A   Clear
2:15 AM 35.6 °F 30.7 °F 20.8 °F 55% 30.43 in 10.0 mi SE 5.8 mph - N/A   Clear
2:35 AM 35.6 °F 30.7 °F 21.9 °F 58% 30.42 in 10.0 mi SE 5.8 mph - N/A   Clear
2:55 AM 35.1 °F 31.0 °F 22.6 °F 61% 30.42 in 10.0 mi SE 4.6 mph - N/A   Clear
3:14 AM 34.7 °F 29.6 °F 23.0 °F 62% 30.41 in 10.0 mi SE 5.8 mph - N/A   Clear
3:35 AM 34.2 °F 30.0 °F 23.5 °F 65% 30.41 in 10.0 mi SE 4.6 mph - N/A   Clear
3:55 AM 34.9 °F 29.9 °F 24.3 °F 65% 30.41 in 10.0 mi SE 5.8 mph - N/A   Clear
4:14 AM 35.1 °F 30.1 °F 24.6 °F 66% 30.40 in 10.0 mi SE 5.8 mph - N/A   Clear
4:35 AM 35.2 °F 29.5 °F 25.2 °F 67% 30.40 in 10.0 mi SE 6.9 mph - N/A   Clear
4:55 AM 35.1 °F 27.9 °F 25.5 °F 68% 30.39 in 10.0 mi SE 9.2 mph - N/A   Clear
5:14 AM 35.1 °F 29.3 °F 26.1 °F 70% 30.39 in 10.0 mi SE 6.9 mph - N/A   Clear
5:35 AM 34.9 °F 29.9 °F 26.2 °F 71% 30.39 in 10.0 mi SE 5.8 mph - N/A   Clear
5:55 AM 34.5 °F 29.4 °F 26.6 °F 73% 30.39 in 10.0 mi SE 5.8 mph - N/A   Clear
6:14 AM 34.5 °F 31.6 °F 27.0 °F 74% 30.39 in 10.0 mi SE 3.5 mph - N/A   Clear
6:35 AM 34.3 °F 30.2 °F 27.3 °F 76% 30.39 in 10.0 mi SE 4.6 mph - N/A   Clear
6:55 AM 34.0 °F 29.8 °F 27.9 °F 78% 30.39 in 10.0 mi SE 4.6 mph - N/A   Clear
7:15 AM 34.7 °F 31.8 °F 28.2 °F 77% 30.39 in 10.0 mi SE 3.5 mph - N/A   Clear
7:35 AM 35.6 °F 32.8 °F 28.6 °F 76% 30.40 in 10.0 mi SE 3.5 mph - N/A   Clear
7:55 AM 36.9 °F 34.3 °F 28.6 °F 72% 30.40 in 10.0 mi SE 3.5 mph - N/A   Clear
8:15 AM 38.8 °F 33.8 °F 28.6 °F 67% 30.40 in 10.0 mi SE 6.9 mph - N/A   Clear
8:35 AM 40.3 °F 37.1 °F 28.4 °F 63% 30.40 in 10.0 mi SE 4.6 mph - N/A   Clear
8:55 AM 42.1 °F 37.1 °F 28.2 °F 58% 30.40 in 10.0 mi SE 8.1 mph - N/A   Clear
9:14 AM 44.1 °F 40.1 °F 28.2 °F 54% 30.40 in 10.0 mi SE 6.9 mph - N/A   Clear
9:35 AM 46.4 °F 43.5 °F 28.9 °F 51% 30.39 in 10.0 mi SE 5.8 mph - N/A   Clear
9:55 AM 48.2 °F - 28.2 °F 46% 30.38 in 10.0 mi ESE 8.1 mph - N/A   Clear
10:14 AM 49.8 °F - 26.8 °F 41% 30.38 in 10.0 mi SSE 9.2 mph - N/A   Clear
10:35 AM 51.3 °F - 26.2 °F 38% 30.37 in 10.0 mi SE 9.2 mph - N/A   Clear
10:55 AM 52.7 °F - 24.4 °F 33% 30.37 in 10.0 mi South 11.5 mph - N/A   Clear
11:14 AM 54.0 °F - 25.0 °F 33% 30.37 in 10.0 mi South 10.4 mph - N/A   Clear
11:35 AM 55.2 °F - 23.7 °F 30% 30.37 in 10.0 mi SSE 9.2 mph - N/A   Clear
11:55 AM 55.0 °F - 23.2 °F 29% 30.36 in 10.0 mi South 5.8 mph - N/A   Clear
12:14 PM 55.6 °F - 22.8 °F 28% 30.35 in 10.0 mi SSW 6.9 mph - N/A   Clear
12:35 PM 56.5 °F - 23.7 °F 28% 30.35 in 10.0 mi SE 8.1 mph - N/A   Clear
12:55 PM 56.7 °F - 22.8 °F 27% 30.34 in 10.0 mi ESE 4.6 mph - N/A   Clear
1:15 PM 57.7 °F - 22.3 °F 25% 30.33 in 10.0 mi SE 9.2 mph - N/A   Clear
1:35 PM 58.1 °F - 22.5 °F 25% 30.32 in 10.0 mi Calm Calm - N/A   Clear
1:55 PM 58.3 °F - 22.3 °F 25% 30.31 in 10.0 mi SSE 8.1 mph - N/A   Clear
2:15 PM 59.0 °F - 23.7 °F 26% 30.31 in 10.0 mi SE 9.2 mph - N/A   Clear
2:35 PM 59.9 °F - 22.8 °F 24% 30.30 in 10.0 mi SE 8.1 mph 16.1 mph N/A   Clear
2:54 PM 59.5 °F - 23.4 °F 25% 30.29 in 10.0 mi ESE 5.8 mph - N/A   Clear
3:15 PM 60.1 °F - 23.7 °F 25% 30.28 in 10.0 mi ESE 8.1 mph - N/A   Clear
3:35 PM 60.3 °F - 23.7 °F 25% 30.27 in 10.0 mi SSE 5.8 mph 9.2 mph N/A   Clear
3:55 PM 61.2 °F - 24.1 °F 24% 30.26 in 10.0 mi ESE 5.8 mph 16.1 mph N/A   Clear
4:15 PM 61.0 °F - 23.4 °F 24% 30.25 in 10.0 mi ESE 10.4 mph - N/A   Clear
4:34 PM 61.0 °F - 22.6 °F 23% 30.24 in 10.0 mi SSE 6.9 mph - N/A   Clear
4:55 PM 61.7 °F - 23.9 °F 24% 30.24 in 10.0 mi SSE 8.1 mph - N/A   Clear
5:15 PM 61.2 °F - 22.1 °F 22% 30.23 in 10.0 mi SE 12.7 mph 19.6 mph N/A   Clear
5:34 PM 61.0 °F - 22.1 °F 22% 30.23 in 10.0 mi SE 12.7 mph 17.3 mph N/A   Clear
5:55 PM 60.6 °F - 23.0 °F 24% 30.22 in 10.0 mi SE 11.5 mph - N/A   Clear
6:15 PM 60.1 °F - 20.3 °F 22% 30.22 in 10.0 mi SSE 10.4 mph 16.1 mph N/A   Clear
6:34 PM 60.1 °F - 19.9 °F 21% 30.22 in 10.0 mi SE 8.1 mph - N/A   Clear
6:55 PM 59.0 °F - 18.9 °F 21% 30.20 in 10.0 mi SE 8.1 mph 18.4 mph N/A   Clear
7:14 PM 57.6 °F - 16.0 °F 20% 30.20 in 10.0 mi SSE 10.4 mph - N/A   Clear
7:35 PM 56.8 °F - 16.5 °F 21% 30.20 in 10.0 mi SSE 9.2 mph - N/A   Clear
7:55 PM 55.9 °F - 16.5 °F 21% 30.20 in 10.0 mi SSE 8.1 mph - N/A   Clear
8:14 PM 55.0 °F - 17.4 °F 23% 30.20 in 10.0 mi SSE 6.9 mph - N/A   Clear
8:35 PM 53.6 °F - 18.0 °F 25% 30.20 in 10.0 mi SSE 3.5 mph - N/A   Clear
8:55 PM 52.7 °F - 19.2 °F 27% 30.20 in 10.0 mi SE 5.8 mph - N/A   Clear
9:15 PM 51.1 °F - 20.1 °F 30% 30.20 in 10.0 mi Calm Calm - N/A   Clear
9:35 PM 50.9 °F - 20.8 °F 31% 30.20 in 10.0 mi SE 3.5 mph - N/A   Clear
9:55 PM 48.6 °F - 23.0 °F 37% 30.20 in 10.0 mi SE 4.6 mph - N/A   Clear
10:15 PM 48.9 °F - 22.8 °F 36% 30.20 in 10.0 mi SE 5.8 mph - N/A   Clear
10:35 PM 48.9 °F - 21.9 °F 35% 30.20 in 10.0 mi SSE 4.6 mph - N/A   Clear
10:55 PM 48.6 °F - 22.6 °F 36% 30.21 in 10.0 mi SSE 4.6 mph - N/A   Clear
11:15 PM 47.8 °F - 23.4 °F 38% 30.20 in 10.0 mi SE 4.6 mph - N/A   Clear
11:35 PM 47.3 °F - 22.8 °F 38% 30.20 in 10.0 mi SE 4.6 mph - N/A   Clear
11:54 PM 47.5 °F - 25.0 °F 41% 30.19 in 10.0 mi SE 5.8 mph - N/A   Clear